Tracking 35334 objects as of 12-Sep-2026
HD Live streaming from Space Station
objects crossing your sky now

STARLINK-2258


STARLINK-2258 is no longer on orbit
STARLINK-2258 is classified as:


NORAD ID: 47860
Int'l Code: 2021-021A
Launch date: March 14, 2021
Source: United States (US)
Launch site: AIR FORCE EASTERN TEST RANGE (AFETR)
Decay date: 2025-01-30
Your satellite tracking list
Your tracking list is empty




NASA's NSSDC Master Catalog

Two Line Element Set (TLE):
1 47860U 21021A   25029.88846302  .10405965  12241-4  91442-3 0  9995
2 47860  53.0321 262.9373 0007025 229.9433 204.1351 16.38361482215140
Source of the keplerian elements: AFSPC